FW5433 Weather Reports


time (UTC)temp
C
wind
direction
speed
KPH
gust
KPH
rain 1hr
cm
rain 24hr
cm
rain mn
cm
humidity
%
barometer
mb
20260906035515 31 0.0 0.0 0.00 0.00 0.00 67 1012.7
20260906034515 31 0.0 1.6 0.00 0.00 0.00 65 1012.6
20260906033515 31 0.0 1.6 0.00 0.00 0.00 64 1012.5
20260906032516 31 0.0 3.2 0.00 0.00 0.00 63 1012.3
20260906031515 31 0.0 1.6 0.00 0.00 0.00 62 1012.3
20260906030515 31 0.0 1.6 0.00 0.00 0.00 61 1012.2
20260906025516 31 0.0 1.6 0.00 0.00 0.00 61 1012.1
20260906024515 31 0.0 0.0 0.00 0.00 0.00 60 1012.0
20260906023515 31 0.0 0.0 0.00 0.00 0.00 59 1011.9
20260906022515 31 0.0 0.0 0.00 0.00 0.00 59 1011.7
20260906021515 31 0.0 1.6 0.00 0.00 0.00 58 1011.6
20260906020535 31 0.0 1.6 0.00 0.00 0.00 58 1011.4
20260906015515 31 0.0 1.6 0.00 0.00 0.00 60 1011.3
20260906014515 31 0.0 0.0 0.00 0.00 0.00 60 1011.1
20260906013515 31 0.0 1.6 0.00 0.00 0.00 60 1011.1
20260906012515 32 0.0 1.6 0.00 0.00 0.00 60 1011.0
20260906011536 32 0.0 0.0 0.00 0.00 0.00 59 1010.9
20260906010515 32 0.0 0.0 0.00 0.00 0.00 57 1010.8
20260906005515 33 0.0 0.0 0.00 0.00 0.00 56 1010.7
20260906004515 33 0.0 0.0 0.00 0.00 0.00 54 1010.7
20260906003515 33 0.0 0.0 0.00 0.00 0.00 54 1010.7
20260906002515 34 0.0 1.6 0.00 0.00 0.00 52 1010.7
20260906001515 35 0.0 3.2 0.00 0.00 0.00 49 1010.7
20260906000515 36 0.0 1.6 0.00 0.00 0.00 47 1010.6
20260905235535 36 23 1.6 4.8 0.00 0.00 0.00 44 1010.6
20260905234515 36 0 1.6 4.8 0.00 0.00 0.00 44 1010.7
20260905233515 36 0 1.6 4.8 0.00 0.00 0.00 43 1010.8
20260905232515 36 0 1.6 3.2 0.00 0.00 0.00 45 1010.8
20260905231535 36 0 1.6 3.2 0.00 0.00 0.00 45 1010.7
20260905230515 37 23 1.6 6.4 0.00 0.00 0.00 45 1010.8
20260905225515 36 0.0 3.2 0.00 0.00 0.00 46 1010.7
20260905224535 36 0.0 3.2 0.00 0.00 0.00 46 1010.7
20260905223515 36 338 1.6 3.2 0.00 0.00 0.00 46 1010.7
20260905222515 36 293 1.6 3.2 0.00 0.00 0.00 46 1010.7
20260905221515 36 0 1.6 3.2 0.00 0.00 0.00 45 1010.8
20260905220515 36 23 3.2 8.0 0.00 0.00 0.00 44 1010.9
20260905215515 36 23 1.6 3.2 0.00 0.00 0.00 44 1010.9
20260905214516 36 0 1.6 6.4 0.00 0.00 0.00 41 1010.9
20260905213517 36 0 3.2 8.0 0.00 0.00 0.00 44 1010.7
20260905212517 36 293 1.6 3.2 0.00 0.00 0.00 46 1010.8
20260905211536 36 338 1.6 3.2 0.00 0.00 0.00 47 1010.8
20260905210517 36 338 1.6 6.4 0.00 0.00 0.00 45 1010.9
20260905205516 36 45 1.6 3.2 0.00 0.00 0.00 42 1010.9
20260905204516 37 23 1.6 9.7 0.00 0.00 0.00 40 1011.2
20260905203516 37 23 1.6 8.0 0.00 0.00 0.00 40 1011.1
20260905202517 37 0 3.2 9.7 0.00 0.00 0.00 39 1011.1
20260905201516 37 23 1.6 3.2 0.00 0.00 0.00 43 1011.2
20260905200537 37 0 1.6 6.4 0.00 0.00 0.00 40 1011.3
20260905195516 37 0 1.6 6.4 0.00 0.00 0.00 39 1011.4
20260905194516 37 0 1.6 8.0 0.00 0.00 0.00 41 1011.6
20260905193516 37 0.0 3.2 0.00 0.00 0.00 41 1011.8
20260905192516 37 0 1.6 6.4 0.00 0.00 0.00 40 1011.9
20260905191516 37 338 3.2 9.7 0.00 0.00 0.00 40 1011.9
20260905190537 37 338 3.2 9.7 0.00 0.00 0.00 42 1012.1
20260905185516 37 0 1.6 3.2 0.00 0.00 0.00 42 1012.1
20260905184517 37 0 1.6 6.4 0.00 0.00 0.00 41 1012.2
20260905183516 37 0 3.2 8.0 0.00 0.00 0.00 40 1012.3
20260905182516 36 0 1.6 4.8 0.00 0.00 0.00 45 1012.3
20260905181557 36 23 1.6 8.0 0.00 0.00 0.00 46 1012.5
20260905180516 36 315 1.6 6.4 0.00 0.00 0.00 46 1012.6
20260905175536 36 248 1.6 3.2 0.00 0.00 0.00 47 1012.6
20260905174516 36 338 1.6 3.2 0.00 0.00 0.00 50 1012.7
20260905173517 36 23 1.6 3.2 0.00 0.00 0.00 49 1013.0
20260905172516 35 203 1.6 8.0 0.00 0.00 0.00 50 1013.0
20260905171537 35 23 1.6 6.4 0.00 0.00 0.00 51 1013.2
20260905170516 35 0 1.6 3.2 0.00 0.00 0.00 51 1013.3
20260905165516 35 0 1.6 8.0 0.00 0.00 0.00 52 1013.4
20260905164516 35 23 1.6 8.0 0.00 0.00 0.00 52 1013.6
20260905163516 34 0 1.6 6.4 0.00 0.00 0.00 53 1013.6
20260905162516 34 0.0 3.2 0.00 0.00 0.00 55 1013.7
20260905161556 33 0 1.6 6.4 0.00 0.00 0.00 56 1013.7
20260905160516 33 338 1.6 3.2 0.00 0.00 0.00 56 1013.8
20260905155516 33 0 1.6 3.2 0.00 0.00 0.00 58 1013.8
20260905154516 33 0 1.6 6.4 0.00 0.00 0.00 58 1013.7
20260905153536 32 338 1.6 6.4 0.00 0.00 0.00 58 1013.8
20260905152516 32 0 1.6 6.4 0.00 0.00 0.00 60 1013.8
20260905151516 32 0 1.6 3.2 0.00 0.00 0.00 60 1013.8
20260905150516 31 0 1.6 4.8 0.00 0.00 0.00 62 1013.8
20260905145516 31 0.0 1.6 0.00 0.00 0.00 62 1013.8
20260905144516 31 0.0 1.6 0.00 0.00 0.00 63 1013.7
20260905143519 31 0.0 3.2 0.00 0.00 0.00 65 1013.7
20260905142516 30 0.0 1.6 0.00 0.00 0.00 66 1013.7
20260905141516 30 0.0 3.2 0.00 0.00 0.00 67 1013.7
20260905140536 30 0.0 3.2 0.00 0.00 0.00 69 1013.7
20260905135516 29 0.0 3.2 0.00 0.00 0.00 70 1013.6
20260905134516 28 0.0 1.6 0.00 0.00 0.00 72 1013.5
20260905133516 28 0.0 3.2 0.00 0.00 0.00 75 1013.5
20260905132516 27 0.0 1.6 0.00 0.00 0.00 78 1013.4
20260905131516 27 0.0 1.6 0.00 0.00 0.00 80 1013.3
20260905130516 27 0.0 0.0 0.00 0.00 0.00 82 1013.4
20260905125516 26 0.0 0.0 0.00 0.00 0.00 82 1013.3
20260905124515 26 0.0 0.0 0.00 0.00 0.00 82 1013.2
20260905123515 26 0.0 1.6 0.00 0.00 0.00 82 1013.1
20260905122515 26 0.0 0.0 0.00 0.00 0.00 83 1013.0
20260905121515 26 0.0 1.6 0.00 0.00 0.00 83 1013.0
20260905120516 26 0.0 1.6 0.00 0.00 0.00 84 1012.9
20260905115515 26 0.0 1.6 0.00 0.00 0.00 84 1012.8
20260905114515 26 0.0 1.6 0.00 0.00 0.00 84 1012.7
20260905113515 26 0.0 1.6 0.00 0.00 0.00 84 1012.7
20260905112515 26 0.0 1.6 0.00 0.00 0.00 84 1012.7
20260905111515 26 0.0 1.6 0.00 0.00 0.00 85 1012.7
20260905110515 26 0.0 1.6 0.00 0.00 0.00 85 1012.6
20260905105516 26 0.0 0.0 0.00 0.00 0.00 84 1012.5
20260905104515 26 0.0 1.6 0.00 0.00 0.00 83 1012.5
20260905103535 26 0.0 1.6 0.00 0.00 0.00 83 1012.6
20260905102515 26 0.0 0.0 0.00 0.00 0.00 82 1012.6
20260905101515 26 0.0 0.0 0.00 0.00 0.00 82 1012.7
20260905100515 26 0.0 0.0 0.00 0.00 0.00 82 1012.7
20260905095515 26 0.0 0.0 0.00 0.00 0.00 82 1012.7
20260905094515 26 0.0 0.0 0.00 0.00 0.00 81 1012.6
20260905093515 26 0.0 0.0 0.00 0.00 0.00 81 1012.5
20260905092515 27 0.0 0.0 0.00 0.00 0.00 80 1012.6
20260905091515 27 0.0 0.0 0.00 0.00 0.00 80 1012.5
20260905090515 27 0.0 0.0 0.00 0.00 0.00 80 1012.6
20260905085515 27 0.0 0.0 0.00 0.00 0.00 79 1012.6
20260905084515 27 0.0 0.0 0.00 0.00 0.00 79 1012.6
20260905083515 27 0.0 0.0 0.00 0.00 0.00 79 1012.7
20260905082515 27 0.0 0.0 0.00 0.00 0.00 78 1012.8
20260905081535 27 0.0 0.0 0.00 0.00 0.00 78 1012.9
20260905080515 27 0.0 0.0 0.00 0.00 0.00 77 1012.9
20260905075515 27 0.0 0.0 0.00 0.00 0.00 77 1012.9
20260905074515 28 0.0 0.0 0.00 0.00 0.00 76 1012.9
20260905073515 28 0.0 0.0 0.00 0.00 0.00 75 1012.9
20260905072515 28 0.0 0.0 0.00 0.00 0.00 75 1012.9
20260905071515 28 0.0 0.0 0.00 0.00 0.00 76 1012.9
20260905070515 27 0.0 0.0 0.00 0.00 0.00 76 1013.0
20260905065535 27 0.0 0.0 0.00 0.00 0.00 76 1013.0
20260905064515 27 0.0 1.6 0.00 0.00 0.00 76 1013.1
20260905063515 27 0.0 0.0 0.00 0.00 0.00 75 1013.1
20260905062515 28 0.0 1.6 0.00 0.00 0.00 75 1013.1
20260905061515 28 0.0 0.0 0.00 0.00 0.00 74 1013.1
20260905060514 28 0.0 0.0 0.00 0.00 0.00 73 1013.2
20260905055515 28 0.0 1.6 0.00 0.00 0.00 72 1013.2
20260905054517 28 0.0 0.0 0.00 0.00 0.00 71 1013.1
20260905053517 28 0.0 0.0 0.00 0.00 0.00 71 1013.2
20260905052517 29 0.0 1.6 0.00 0.00 0.00 70 1013.3
20260905051517 29 0.0 0.0 0.00 0.00 0.00 69 1013.3
20260905050516 29 0.0 0.0 0.00 0.00 0.00 69 1013.2
20260905045536 29 0.0 0.0 0.00 0.00 0.00 68 1013.1
20260905044516 29 0.0 0.0 0.00 0.00 0.00 67 1013.0
20260905043516 30 0.0 1.6 0.00 0.00 0.00 67 1013.0
20260905042516 30 0.0 1.6 0.00 0.00 0.00 67 1013.0
20260905041536 30 0.0 1.6 0.00 0.00 0.00 66 1013.1
20260905040516 30 0.0 1.6 0.00 0.00 0.00 66 1013.0